GEFSNGP_con_probscp_366.txt.gz
Probability
0 0 0 0 0 0 0 0 0 0 1 4 8 11 12 12 14 16 16 14 13 16 20 20 18 15 12 11 11 13 15 14 14 15 16 15 12 11 11 10 9 8 7 6
0 0 0 0 0 0 0 0 0 0 1 3 5 9 11 11 12 16 17 16 16 18 22 22 20 16 12 10 10 13 15 15 14 15 15 14 13 12 13 13 12 10 9 8
0 0 0 0 0 0 0 0 0 0 1 1 3 6 8 8 10 14 17 18 18 19 23 23 20 16 12 10 9 12 14 14 14 14 13 12 12 14 15 15 14 12 10 10
0 0 0 0 0 0 0 0 0 0 0 1 3 5 6 7 8 11 14 16 16 17 19 21 18 15 13 12 11 12 11 12 15 15 13 10 11 13 15 14 12 10 10 10
0 0 0 0 0 0 0 0 1 1 2 3 4 5 7 7 8 9 11 14 16 16 17 17 16 14 13 13 13 11 10 12 15 17 14 11 11 13 13 12 10 9 9 10
0 0 0 1 1 0 0 1 3 4 5 7 7 7 9 9 8 9 10 13 17 17 17 15 13 13 13 12 10 9 10 12 15 17 15 14 14 14 13 12 11 10 10 11
0 0 1 2 2 1 2 4 6 7 8 10 11 11 11 10 9 8 10 13 16 16 15 14 13 14 13 9 8 8 9 11 13 15 14 14 15 15 14 13 13 12 12 12
0 0 2 3 3 2 3 5 6 7 9 11 11 11 11 11 9 8 10 14 15 15 14 13 14 15 13 9 9 10 11 11 13 13 13 13 13 14 13 12 11 12 12 12
1 1 4 5 4 3 4 4 5 7 9 11 10 9 10 12 11 10 11 14 15 15 14 13 13 13 12 11 13 13 12 12 13 14 13 12 11 10 9 8 8 8 9 9
3 4 5 5 3 2 3 4 6 8 10 11 10 8 9 13 15 13 12 13 14 15 14 13 11 11 13 14 15 15 12 12 13 13 13 11 8 7 6 5 5 5 7 7
5 6 6 4 2 1 2 4 6 9 11 12 10 9 10 14 16 14 11 11 13 15 15 13 10 11 13 15 15 15 13 11 11 11 10 8 6 5 4 3 3 4 5 7
6 7 6 4 3 2 1 2 4 8 12 10 9 9 10 13 14 12 9 9 13 15 14 11 9 10 12 14 15 14 12 11 9 8 6 5 4 4 3 3 2 2 3 4
6 6 5 5 4 4 3 2 3 8 11 9 6 7 8 10 11 10 9 9 11 12 11 7 5 6 9 12 13 12 10 8 7 6 5 4 3 3 3 3 2 1 1 1
6 7 7 7 7 6 5 4 5 8 9 6 3 4 6 8 9 8 7 7 8 8 6 4 2 3 5 8 10 9 7 5 5 5 4 3 3 3 3 3 3 3 2 1
6 7 9 9 9 8 6 5 5 6 6 4 2 3 6 8 8 8 8 8 7 6 6 4 2 2 4 6 7 6 4 3 3 4 3 2 2 3 3 3 4 4 4 3
6 7 8 8 7 6 5 4 5 5 4 3 4 5 6 8 9 10 11 10 9 8 8 7 4 3 4 4 4 4 3 3 3 3 2 1 1 2 3 3 3 4 5 5
5 5 5 4 3 3 3 4 4 4 3 3 5 4 5 7 10 12 12 12 11 11 10 7 5 4 3 3 3 3 3 3 2 2 2 0 0 1 2 3 3 4 5 6
3 2 1 1 2 2 3 3 3 2 2 3 4 5 5 7 9 12 13 12 12 11 9 6 5 4 4 3 3 3 3 3 3 3 2 1 0 0 1 1 2 3 4 5
2 1 0 0 1 2 3 3 3 3 2 3 4 6 8 9 10 14 14 12 10 10 8 5 4 4 3 3 3 3 3 3 3 3 2 1 0 0 0 0 1 1 3 4
1 0 0 0 0 1 3 4 7 8 6 5 6 9 10 11 12 14 15 12 10 10 8 5 3 3 3 3 3 3 3 3 3 1 1 0 0 0 0 0 0 1 2 3
1 1 1 1 1 2 4 5 7 9 8 7 8 10 11 11 12 14 14 12 11 11 8 5 3 3 3 3 3 3 3 3 2 1 0 0 0 0 0 0 1 2 3 3
2 2 2 2 2 3 6 6 7 8 8 8 8 8 8 9 9 11 12 12 12 11 9 7 4 3 3 3 3 3 3 3 3 1 1 0 0 0 1 1 2 3 3 3
3 2 1 1 2 4 5 6 6 6 7 7 6 6 6 5 6 8 9 10 10 9 8 7 5 2 2 2 3 3 3 3 3 3 2 1 0 1 2 3 3 3 3 3
3 2 2 2 3 3 4 5 5 5 5 6 5 5 5 4 4 6 8 7 7 7 7 6 3 1 2 4 4 4 4 4 4 3 2 1 0 2 3 3 3 3 3 3
2 2 2 2 3 3 4 5 4 4 4 5 5 5 6 5 5 6 7 6 5 5 6 5 2 1 3 5 5 4 4 4 4 3 2 1 1 2 3 4 3 3 3 3
1 1 1 2 3 3 4 5 5 5 5 6 6 6 6 6 6 7 7 5 5 5 6 6 4 3 4 5 4 4 4 4 3 2 2 2 3 4 5 5 4 4 3 2
0 0 1 2 3 3 4 6 6 6 6 6 6 5 5 6 7 7 6 5 5 6 6 6 5 4 4 4 4 3 3 3 2 1 1 2 4 6 6 6 6 5 3 1

GEFSNGP_con_probscp_372.txt.gz
Probability
0 0 0 0 0 0 0 0 1 3 7 12 17 19 19 17 18 21 22 23 25 28 33 36 37 36 33 29 29 29 26 24 24 26 27 27 25 23 21 17 16 16 16 15
0 0 0 0 0 1 1 0 0 2 8 14 17 19 17 16 18 21 23 25 27 31 34 36 36 36 34 30 28 27 25 23 23 26 27 25 23 23 22 19 17 17 18 16
0 0 0 0 1 2 2 1 1 3 8 13 17 17 16 16 17 20 25 28 30 32 33 33 33 32 31 28 26 25 24 23 23 24 24 22 20 20 21 20 19 19 18 17
0 0 0 0 1 3 3 4 4 5 8 11 14 15 16 17 18 22 26 30 31 29 28 26 26 26 25 23 23 23 22 22 22 22 22 21 18 17 19 19 19 18 18 17
0 0 0 0 1 2 4 6 7 8 10 11 12 15 21 22 21 24 28 30 29 25 23 22 22 22 20 19 19 20 21 21 20 20 20 20 18 17 17 18 18 18 18 17
1 1 0 1 1 1 5 9 11 14 17 17 17 21 26 26 25 26 28 29 25 21 21 22 21 20 19 18 18 19 21 21 19 18 18 19 18 18 17 17 18 18 17 16
4 3 2 3 3 5 10 16 19 21 24 27 27 28 28 28 28 29 28 25 22 20 22 24 23 21 20 20 19 20 20 20 19 18 17 17 18 18 17 17 17 17 15 15
7 7 7 8 9 11 17 20 21 22 25 28 30 29 29 30 31 30 28 23 20 22 25 25 24 23 22 22 23 23 21 20 20 18 17 16 16 17 17 16 15 15 14 13
7 9 11 11 12 13 14 14 15 16 19 21 24 26 28 29 29 28 25 23 21 24 27 25 24 23 23 24 25 25 23 21 19 18 17 17 16 16 16 15 14 13 12 11
9 10 10 10 11 10 9 8 9 10 13 15 19 22 24 25 26 23 23 24 24 25 26 24 23 22 22 23 23 23 23 21 18 16 16 17 16 15 15 14 13 12 10 10
11 10 9 9 9 9 8 7 8 9 10 13 17 19 20 23 24 23 23 25 26 26 26 24 22 22 21 21 23 24 23 21 17 13 13 15 14 11 11 11 10 9 8 8
9 8 7 7 7 7 6 6 7 9 10 13 16 17 19 23 25 25 25 25 25 26 25 23 23 22 21 22 24 26 24 21 17 12 11 13 12 9 8 7 6 4 4 4
8 6 6 6 6 4 3 4 6 9 11 13 15 15 17 21 25 27 27 26 25 24 22 21 23 23 22 23 25 26 23 19 15 12 10 10 10 8 5 4 3 2 1 1
8 7 8 8 7 5 4 5 6 9 12 13 14 14 16 20 24 27 27 25 24 23 21 21 22 22 21 22 23 24 21 17 13 11 9 8 8 7 6 4 4 4 2 2
7 7 8 8 6 5 6 6 8 11 12 13 13 14 17 21 25 27 27 25 23 22 21 22 22 20 19 20 21 21 18 13 10 8 8 7 7 7 6 6 6 6 5 5
6 5 5 6 6 6 7 9 11 12 14 14 14 14 17 21 24 25 25 23 23 23 23 24 22 19 17 17 17 16 13 8 6 6 7 7 6 6 6 7 7 7 7 7
6 5 5 5 7 7 8 10 12 14 15 16 16 14 13 16 21 23 21 21 24 26 25 24 21 18 15 14 13 11 7 4 4 5 5 6 6 6 7 7 8 9 8 7
8 7 7 8 10 9 9 10 12 14 16 18 17 14 12 14 19 22 21 22 25 27 25 21 19 17 14 12 10 8 6 4 4 4 4 5 6 6 7 8 8 8 8 8
9 9 9 10 10 8 8 10 12 14 16 15 15 16 17 18 19 21 22 23 25 25 23 19 15 14 13 11 9 8 7 4 3 4 4 5 6 6 7 7 7 7 8 8
8 8 9 9 8 6 7 10 12 12 12 11 11 14 19 21 21 21 22 22 22 22 21 17 13 13 12 10 8 8 7 4 3 3 4 5 6 6 6 6 6 6 7 8
6 6 7 8 9 7 7 8 9 9 8 7 8 10 14 19 20 21 21 20 20 21 20 16 13 12 10 8 7 7 6 4 3 3 3 4 6 6 6 6 6 6 6 7
9 9 9 10 11 10 8 7 6 6 6 7 9 10 12 15 17 18 18 17 17 18 18 16 12 8 6 6 6 6 5 4 3 3 3 4 5 6 6 5 5 5 7 8
15 15 14 12 12 11 10 8 7 7 8 9 11 12 12 13 14 14 14 13 11 11 13 13 10 4 3 5 5 4 4 3 3 3 3 3 4 4 5 5 5 7 8 9
17 18 16 13 11 10 10 9 9 8 8 8 10 11 10 10 11 11 11 10 7 6 8 8 5 2 1 3 4 3 3 3 3 3 3 4 3 4 5 6 7 8 8 8
15 15 14 12 10 9 8 8 8 8 6 6 7 9 9 8 8 8 9 8 6 5 6 5 2 1 1 3 3 3 3 3 3 3 4 4 4 4 5 6 7 7 6 6
12 11 10 10 9 8 6 5 5 5 4 4 6 8 7 6 6 6 6 5 4 4 6 5 4 2 2 3 3 3 4 4 4 5 5 4 4 4 5 5 6 5 5 5
8 8 7 7 7 6 4 3 4 4 4 4 6 6 6 4 4 4 4 2 2 4 6 7 6 4 3 3 3 4 5 5 6 7 6 4 4 5 5 6 6 6 5 5

GEFSNGP_con_probscp_378.txt.gz
Probability
0 0 0 1 0 0 1 1 1 1 1 2 3 4 6 8 10 13 15 16 16 14 12 12 12 10 9 11 14 14 12 9 7 6 6 8 8 7 7 6 4 4 4 3
0 0 1 2 1 1 1 1 2 3 2 3 4 6 8 10 11 12 12 13 13 11 10 10 11 11 10 11 13 12 9 7 6 7 8 9 9 8 8 7 5 3 2 2
0 1 2 3 3 3 2 2 2 3 2 4 7 8 10 11 11 10 9 8 8 8 7 8 9 10 10 11 12 10 8 6 5 7 10 11 10 9 9 8 6 3 2 1
0 1 2 3 3 3 3 2 2 2 3 6 10 10 10 11 10 8 6 6 6 6 5 5 7 8 9 11 11 9 7 5 5 6 9 10 9 8 9 8 6 4 3 2
0 1 2 3 3 3 3 4 4 4 6 10 13 13 11 12 11 9 7 6 6 5 4 5 6 7 7 8 8 7 6 5 5 6 7 6 5 6 7 6 5 4 5 5
0 1 2 3 2 2 3 5 6 8 10 12 12 12 12 13 14 12 8 7 6 5 5 6 6 6 5 5 6 6 6 5 5 6 6 5 3 3 4 5 4 3 4 5
0 0 1 2 2 2 2 3 6 8 9 9 8 8 10 13 15 13 9 6 6 5 5 6 6 5 3 4 5 6 5 4 4 5 5 4 2 1 1 2 2 1 2 3
1 1 1 1 2 2 1 3 5 5 5 5 7 8 8 9 12 10 7 4 4 4 4 5 6 5 4 4 4 4 4 4 3 3 4 3 2 1 1 1 1 0 0 1
2 1 1 1 2 1 3 5 5 3 2 3 6 8 7 7 8 6 4 2 2 2 2 3 5 6 6 5 4 3 3 3 2 2 3 3 3 3 2 1 0 0 0 1
1 1 1 2 2 2 3 5 5 4 3 3 4 5 6 7 6 4 2 2 1 1 2 3 4 5 6 6 5 4 3 3 2 1 3 3 3 3 2 1 1 0 1 2
1 2 3 3 3 2 3 4 6 5 4 3 4 6 7 9 8 5 3 1 0 1 2 2 2 3 4 5 4 3 4 4 3 1 2 2 2 2 1 1 1 1 2 3
2 3 3 3 3 3 4 5 7 7 5 5 6 8 9 9 7 6 4 2 1 1 2 2 2 2 3 5 4 3 4 5 4 1 1 1 0 0 0 0 0 0 1 1
1 2 3 3 4 5 7 7 8 7 7 8 9 9 9 7 5 4 5 5 4 4 4 4 4 4 4 5 5 4 4 4 3 1 0 0 0 0 0 0 0 0 0 0
0 1 3 3 5 8 9 7 6 6 7 8 8 8 6 4 3 3 3 5 6 6 6 7 8 7 5 4 5 6 5 4 3 1 0 0 0 0 0 0 0 0 0 0
0 1 3 4 6 9 9 6 5 5 5 7 7 6 5 3 2 2 2 3 5 6 7 9 10 8 6 5 5 7 7 6 5 2 1 0 0 0 0 0 0 0 1 1
1 2 3 3 5 6 6 6 5 5 5 6 6 6 4 3 3 2 2 3 4 5 6 7 8 7 6 6 6 7 8 8 6 4 2 1 1 2 2 2 2 2 2 2
3 3 3 3 3 4 5 6 6 7 6 6 6 5 4 4 4 3 2 2 3 4 5 5 4 5 6 7 8 8 9 8 6 5 4 4 4 5 5 5 5 5 5 5
4 4 4 3 2 3 4 6 7 8 7 6 5 5 4 4 4 3 2 2 2 2 3 3 3 3 4 6 8 9 9 9 7 6 6 6 6 6 6 6 7 8 7 7
6 5 5 4 3 3 4 6 7 7 7 6 5 5 5 4 3 2 2 3 2 3 3 3 2 2 3 4 7 9 10 9 7 6 6 6 6 6 6 6 6 6 6 6
5 6 5 5 5 5 5 7 8 7 6 6 4 4 4 3 1 1 2 3 3 3 3 2 1 1 1 2 4 7 9 8 7 6 6 6 6 5 4 4 4 4 4 4
3 4 5 5 5 6 7 8 9 7 5 3 2 1 1 1 1 1 3 3 3 3 3 2 1 1 0 1 2 4 5 6 6 5 5 4 4 4 3 3 3 3 3 3
1 3 4 3 4 6 7 7 7 5 3 2 1 0 0 0 1 2 3 3 3 2 2 2 1 1 0 0 0 1 2 3 4 5 4 3 3 3 3 3 3 3 3 3
2 3 3 3 3 4 4 4 4 3 2 1 1 1 1 1 1 2 3 2 1 1 1 1 0 0 0 0 0 0 0 1 2 3 3 3 3 3 3 3 3 3 3 3
6 6 5 5 4 3 2 3 4 4 3 2 2 2 2 1 1 1 1 1 0 0 0 0 0 0 0 0 0 0 0 0 1 2 3 3 3 3 3 3 3 3 3 3
8 8 7 6 4 2 2 3 5 5 5 3 3 3 3 1 0 0 0 0 0 0 0 0 0 0 0 0 0 0 0 0 1 2 3 3 3 3 3 3 3 3 3 3
6 7 6 5 3 2 2 4 4 4 4 3 2 2 2 1 0 0 0 0 0 0 0 0 0 0 0 0 0 0 0 0 1 2 2 2 2 2 2 2 2 2 2 1
4 5 6 5 3 2 3 3 3 3 3 2 2 1 1 0 0 0 0 0 0 0 0 0 0 0 0 0 0 0 0 0 0 1 1 1 1 1 1 1 1 1 1 0

GEFSNGP_con_probscp_384.txt.gz
Probability
0 0 0 0 0 0 0 0 0 0 1 2 2 1 1 2 2 2 4 6 8 9 11 13 15 16 15 13 11 11 10 9 7 4 2 1 1 2 4 5 5 5 4 4
0 0 0 0 0 0 0 0 0 0 0 1 1 0 1 2 2 3 6 7 8 8 10 13 15 15 14 12 9 8 7 7 5 4 2 1 2 4 5 5 4 3 3 4
0 0 0 0 0 0 0 0 0 0 0 0 0 0 1 1 1 3 6 8 7 6 7 9 12 13 12 9 6 5 4 4 5 4 4 3 4 5 5 3 2 2 2 4
0 0 0 0 0 0 1 1 0 0 0 1 1 2 2 2 2 3 5 6 6 4 4 5 7 8 7 5 4 3 3 3 4 5 5 4 3 3 2 1 1 1 2 3
0 0 0 0 0 0 1 2 1 0 1 3 5 5 5 4 3 2 3 4 5 4 3 4 4 4 4 4 3 3 3 3 3 4 4 3 2 1 0 0 0 1 1 2
0 0 0 0 0 0 1 2 1 0 1 5 8 7 6 5 4 3 2 2 3 3 3 3 2 1 2 3 3 3 3 3 3 3 3 3 1 0 0 0 0 1 1 1
0 0 0 0 0 1 1 1 0 0 2 6 8 7 6 5 4 4 3 1 1 2 3 3 1 0 1 1 3 3 4 4 3 3 3 2 1 0 0 0 0 0 0 0
0 0 0 0 0 1 1 0 0 1 3 5 5 5 5 4 3 3 3 1 0 1 2 2 2 1 1 1 3 4 5 4 3 2 2 2 1 0 0 0 0 0 0 0
0 0 0 0 0 0 0 0 0 1 4 6 4 3 3 2 1 2 2 1 0 0 1 1 1 1 2 2 2 3 4 4 2 1 1 1 0 0 1 1 1 1 0 0
0 0 0 0 0 0 0 0 0 1 4 6 4 1 1 1 1 1 1 1 0 0 0 0 0 1 2 2 1 1 3 3 2 1 0 0 0 1 2 2 2 1 0 0
0 0 0 0 0 0 0 1 1 2 3 4 3 1 0 0 1 2 1 0 0 0 0 0 0 0 2 2 1 0 1 3 2 1 0 0 0 1 2 2 2 1 0 0
0 0 0 0 0 0 1 2 2 2 3 3 2 1 0 0 1 2 2 1 1 1 0 0 0 0 1 1 1 0 1 2 2 1 0 0 0 0 1 1 1 0 0 0
0 0 0 0 0 0 1 3 3 3 3 3 3 2 1 1 0 1 2 2 2 2 1 0 0 0 0 0 0 0 0 1 2 2 1 0 0 0 0 0 0 0 0 0
0 0 0 0 0 1 3 4 4 4 3 3 3 3 3 2 1 0 1 1 2 2 1 0 0 0 0 0 0 0 0 0 1 2 2 1 0 1 1 1 1 1 2 1
0 0 0 0 0 2 4 5 4 3 3 3 4 4 4 3 1 0 0 0 1 1 1 0 0 0 0 0 0 0 0 0 0 1 2 3 2 2 2 2 2 3 3 3
0 0 0 0 0 2 5 5 3 2 3 4 5 6 5 3 1 0 0 0 0 0 0 0 0 0 0 1 1 1 1 1 0 1 2 4 4 4 4 4 4 4 4 4
0 0 0 0 0 2 4 3 2 2 5 6 6 6 4 2 0 0 0 0 0 0 0 0 0 0 0 1 2 2 2 2 2 2 3 4 5 4 5 5 5 5 4 4
0 0 0 0 0 1 3 3 3 4 6 7 7 4 2 0 0 0 0 0 0 0 1 1 0 0 0 0 1 3 3 3 3 3 3 3 4 4 5 6 5 5 4 4
0 0 0 1 1 3 4 5 5 6 6 6 6 4 2 1 0 0 0 0 0 0 1 2 1 0 0 0 1 2 4 4 4 3 3 3 3 4 5 5 5 4 4 3
0 0 1 2 4 5 6 6 6 6 5 4 4 5 4 2 0 0 0 0 0 0 1 2 1 1 1 1 1 2 4 4 4 3 3 2 2 2 3 3 4 4 3 3
1 0 1 3 5 6 6 5 5 4 3 2 2 3 3 2 1 1 0 0 0 0 1 1 1 2 2 1 1 2 3 3 3 2 1 1 1 0 1 1 2 2 3 3
2 1 0 1 3 5 4 3 2 3 3 2 1 1 1 1 2 2 1 0 0 0 0 0 1 1 1 1 0 1 1 1 1 1 0 0 0 0 0 0 1 1 1 2
3 2 1 1 1 2 2 1 1 1 2 2 1 0 1 1 2 2 1 0 1 0 0 0 0 0 0 0 0 0 0 0 0 0 0 0 0 0 0 0 0 0 0 1
2 2 2 2 1 0 0 1 1 1 1 1 1 1 1 1 1 1 0 0 0 0 0 0 0 0 0 0 0 0 0 0 0 0 0 0 0 0 0 0 0 0 0 0
1 1 2 3 2 1 1 1 2 2 2 2 2 1 0 0 0 0 0 0 0 0 0 0 0 0 0 0 0 0 0 0 0 0 0 0 0 0 0 0 0 0 0 0
0 1 2 3 2 2 2 3 3 3 3 2 1 0 0 0 0 0 0 0 0 0 0 0 0 0 0 0 0 0 0 0 0 0 0 0 0 0 0 0 0 0 0 0
1 1 2 2 3 3 3 3 3 3 2 1 0 0 0 0 0 0 0 0 0 0 0 0 0 0 0 0 0 0 0 0 0 0 0 0 0 0 0 0 0 0 0 0